GFSNE_prec_precacc12_021.txt.gz
Total_Precipitation_Accumulation
0.12 0.09 0.08 0.07 0.06 0.05 0.03 0.02 0.01 0.01 0.00 0.00 0.00 0.00 0.00 0.00 0.00 0.00 0.00 0.00 0.00 0.00 0.00 0.00 0.01 0.01 0.01 0.05 0.07 0.05 0.04 0.13 0.24 0.38 0.58 0.47 0.43 0.34
0.03 0.03 0.02 0.03 0.02 0.02 0.01 0.01 0.00 0.00 0.00 0.00 0.00 0.00 0.00 0.00 0.00 0.00 0.00 0.00 0.00 0.00 0.00 0.00 0.00 0.00 0.01 0.02 0.03 0.03 0.03 0.02 0.06 0.16 0.37 0.74 0.67 0.52
0.01 0.01 0.00 0.00 0.00 0.00 0.00 0.00 0.00 0.00 0.00 0.00 0.00 0.00 0.00 0.00 0.00 0.00 0.00 0.00 0.00 0.00 0.00 0.00 0.00 0.00 0.00 0.00 0.00 0.00 0.01 0.01 0.01 0.04 0.15 0.46 1.03 1.08
0.00 0.00 0.00 0.00 0.00 0.00 0.00 0.00 0.00 0.00 0.00 0.00 0.00 0.00 0.00 0.00 0.00 0.00 0.00 0.00 0.00 0.00 0.00 0.00 0.00 0.00 0.00 0.00 0.00 0.00 0.00 0.00 0.00 0.00 0.01 0.10 0.38 1.04
0.00 0.00 0.00 0.00 0.00 0.00 0.00 0.00 0.00 0.00 0.00 0.00 0.00 0.00 0.00 0.00 0.00 0.00 0.00 0.00 0.00 0.00 0.00 0.00 0.00 0.00 0.00 0.00 0.00 0.00 0.00 0.00 0.00 0.00 0.00 0.01 0.07 0.25
0.00 0.00 0.00 0.00 0.00 0.00 0.00 0.00 0.00 0.00 0.00 0.00 0.00 0.00 0.00 0.00 0.00 0.00 0.00 0.00 0.00 0.00 0.00 0.00 0.00 0.00 0.00 0.00 0.00 0.00 0.00 0.00 0.00 0.00 0.00 0.00 0.00 0.05
0.00 0.00 0.00 0.00 0.00 0.00 0.00 0.00 0.00 0.00 0.00 0.01 0.01 0.00 0.00 0.00 0.00 0.00 0.00 0.00 0.00 0.00 0.00 0.00 0.00 0.00 0.00 0.00 0.00 0.00 0.00 0.00 0.00 0.00 0.00 0.00 0.00 0.00
0.00 0.00 0.00 0.00 0.00 0.00 0.00 0.00 0.00 0.01 0.01 0.01 0.01 0.01 0.00 0.00 0.00 0.00 0.00 0.01 0.01 0.00 0.00 0.01 0.00 0.00 0.00 0.00 0.00 0.00 0.00 0.00 0.00 0.00 0.00 0.00 0.00 0.00
0.00 0.00 0.00 0.00 0.00 0.00 0.00 0.00 0.00 0.00 0.01 0.02 0.03 0.02 0.01 0.01 0.01 0.02 0.02 0.01 0.01 0.00 0.01 0.02 0.02 0.02 0.01 0.00 0.00 0.00 0.00 0.00 0.00 0.00 0.00 0.00 0.00 0.00
0.00 0.00 0.00 0.00 0.00 0.01 0.02 0.03 0.02 0.01 0.01 0.01 0.03 0.02 0.01 0.01 0.01 0.02 0.02 0.03 0.03 0.01 0.01 0.04 0.02 0.02 0.01 0.01 0.00 0.00 0.00 0.00 0.00 0.00 0.00 0.00 0.00 0.00
0.00 0.00 0.00 0.01 0.00 0.01 0.07 0.08 0.05 0.02 0.00 0.01 0.01 0.01 0.01 0.00 0.01 0.06 0.10 0.11 0.08 0.02 0.01 0.03 0.03 0.02 0.01 0.01 0.01 0.00 0.00 0.00 0.00 0.00 0.00 0.00 0.00 0.00
0.01 0.01 0.01 0.01 0.02 0.04 0.11 0.12 0.10 0.02 0.02 0.02 0.01 0.01 0.02 0.03 0.02 0.10 0.12 0.13 0.07 0.05 0.00 0.02 0.02 0.02 0.04 0.02 0.01 0.01 0.02 0.00 0.00 0.00 0.00 0.00 0.00 0.00
0.02 0.02 0.03 0.11 0.06 0.04 0.04 0.05 0.05 0.04 0.04 0.04 0.03 0.02 0.01 0.01 0.02 0.03 0.07 0.13 0.12 0.07 0.01 0.04 0.06 0.03 0.04 0.04 0.03 0.03 0.03 0.02 0.01 0.01 0.00 0.00 0.00 0.00
0.06 0.09 0.13 0.06 0.01 0.00 0.01 0.02 0.02 0.02 0.04 0.06 0.06 0.05 0.05 0.03 0.02 0.03 0.03 0.04 0.05 0.04 0.02 0.08 0.08 0.03 0.05 0.05 0.03 0.02 0.04 0.04 0.02 0.00 0.01 0.00 0.00 0.00
0.13 0.13 0.07 0.02 0.01 0.01 0.02 0.02 0.02 0.05 0.05 0.05 0.05 0.05 0.06 0.05 0.07 0.09 0.08 0.07 0.08 0.06 0.03 0.06 0.11 0.04 0.07 0.08 0.05 0.04 0.05 0.05 0.03 0.01 0.02 0.01 0.01 0.00
0.08 0.10 0.07 0.03 0.03 0.05 0.04 0.03 0.05 0.06 0.06 0.06 0.06 0.05 0.05 0.05 0.07 0.08 0.11 0.11 0.16 0.07 0.03 0.05 0.07 0.09 0.13 0.07 0.04 0.05 0.05 0.05 0.06 0.03 0.02 0.03 0.03 0.01
0.11 0.09 0.07 0.05 0.05 0.04 0.03 0.02 0.03 0.02 0.03 0.05 0.05 0.03 0.02 0.03 0.03 0.04 0.06 0.10 0.13 0.06 0.08 0.06 0.04 0.07 0.10 0.11 0.14 0.04 0.05 0.06 0.06 0.05 0.03 0.02 0.01 0.02
0.10 0.09 0.09 0.09 0.07 0.04 0.03 0.02 0.01 0.01 0.02 0.03 0.04 0.04 0.03 0.03 0.03 0.03 0.02 0.04 0.05 0.06 0.07 0.10 0.12 0.19 0.16 0.11 0.06 0.03 0.05 0.08 0.05 0.06 0.03 0.02 0.01 0.02
0.09 0.09 0.09 0.09 0.07 0.04 0.02 0.02 0.02 0.02 0.03 0.03 0.04 0.04 0.04 0.04 0.04 0.04 0.06 0.08 0.10 0.13 0.13 0.14 0.16 0.16 0.13 0.10 0.09 0.04 0.05 0.04 0.07 0.08 0.06 0.02 0.00 0.03
0.09 0.10 0.09 0.07 0.05 0.03 0.02 0.02 0.02 0.02 0.02 0.02 0.03 0.03 0.03 0.02 0.03 0.04 0.04 0.06 0.07 0.06 0.05 0.06 0.07 0.08 0.12 0.14 0.19 0.09 0.10 0.07 0.08 0.08 0.07 0.05 0.02 0.02
0.08 0.08 0.08 0.07 0.05 0.03 0.03 0.02 0.03 0.03 0.02 0.02 0.02 0.03 0.02 0.02 0.02 0.02 0.02 0.02 0.01 0.01 0.01 0.01 0.02 0.02 0.02 0.03 0.05 0.07 0.07 0.08 0.06 0.08 0.09 0.07 0.04 0.02
0.07 0.06 0.05 0.05 0.04 0.02 0.02 0.02 0.01 0.01 0.01 0.02 0.02 0.02 0.03 0.03 0.02 0.02 0.01 0.01 0.01 0.01 0.01 0.01 0.01 0.01 0.01 0.02 0.05 0.05 0.06 0.07 0.07 0.05 0.04 0.05 0.06 0.08
0.03 0.02 0.03 0.02 0.01 0.01 0.01 0.01 0.01 0.01 0.01 0.01 0.02 0.02 0.02 0.02 0.02 0.02 0.02 0.01 0.01 0.01 0.01 0.01 0.00 0.01 0.01 0.01 0.02 0.04 0.04 0.05 0.05 0.06 0.03 0.02 0.02 0.02

GFSNE_prec_precacc12_024.txt.gz
Total_Precipitation_Accumulation
0.08 0.06 0.06 0.06 0.05 0.04 0.03 0.02 0.02 0.01 0.00 0.00 0.00 0.00 0.01 0.02 0.03 0.03 0.01 0.00 0.00 0.00 0.00 0.00 0.00 0.00 0.00 0.00 0.00 0.00 0.01 0.01 0.03 0.07 0.15 0.29 0.33 0.29
0.05 0.06 0.06 0.07 0.07 0.05 0.04 0.02 0.01 0.00 0.00 0.00 0.00 0.00 0.00 0.00 0.00 0.00 0.00 0.00 0.00 0.00 0.00 0.00 0.00 0.00 0.00 0.00 0.00 0.00 0.01 0.01 0.01 0.02 0.07 0.35 0.49 0.43
0.02 0.02 0.01 0.01 0.01 0.01 0.01 0.01 0.01 0.01 0.00 0.00 0.00 0.00 0.00 0.00 0.00 0.00 0.00 0.00 0.00 0.00 0.00 0.00 0.00 0.00 0.00 0.00 0.00 0.00 0.00 0.01 0.01 0.01 0.03 0.10 0.43 0.70
0.00 0.00 0.00 0.00 0.00 0.00 0.00 0.00 0.00 0.00 0.00 0.00 0.00 0.00 0.00 0.00 0.00 0.00 0.00 0.00 0.00 0.00 0.00 0.00 0.00 0.00 0.00 0.00 0.00 0.00 0.00 0.00 0.00 0.00 0.00 0.03 0.10 0.38
0.00 0.00 0.00 0.00 0.00 0.00 0.00 0.00 0.00 0.00 0.00 0.00 0.00 0.00 0.00 0.00 0.00 0.00 0.00 0.00 0.00 0.00 0.00 0.00 0.00 0.00 0.00 0.00 0.00 0.00 0.00 0.00 0.00 0.00 0.00 0.00 0.02 0.10
0.00 0.00 0.00 0.00 0.00 0.00 0.00 0.00 0.00 0.00 0.00 0.00 0.00 0.00 0.00 0.00 0.00 0.00 0.00 0.00 0.00 0.00 0.00 0.00 0.00 0.00 0.00 0.00 0.00 0.00 0.00 0.00 0.00 0.00 0.00 0.00 0.00 0.01
0.00 0.00 0.00 0.00 0.00 0.00 0.00 0.00 0.00 0.00 0.00 0.00 0.00 0.00 0.00 0.00 0.00 0.00 0.00 0.00 0.00 0.00 0.00 0.00 0.00 0.00 0.00 0.00 0.00 0.00 0.00 0.00 0.00 0.00 0.00 0.00 0.00 0.00
0.00 0.00 0.00 0.00 0.00 0.00 0.00 0.00 0.00 0.01 0.01 0.01 0.01 0.01 0.00 0.00 0.00 0.00 0.00 0.01 0.01 0.00 0.00 0.01 0.00 0.00 0.00 0.00 0.00 0.00 0.00 0.00 0.00 0.00 0.00 0.00 0.00 0.00
0.00 0.00 0.00 0.00 0.00 0.00 0.00 0.00 0.00 0.00 0.01 0.01 0.02 0.01 0.01 0.01 0.01 0.02 0.01 0.02 0.01 0.00 0.01 0.02 0.02 0.02 0.01 0.00 0.00 0.00 0.00 0.00 0.00 0.00 0.00 0.00 0.00 0.00
0.00 0.00 0.00 0.00 0.00 0.00 0.02 0.02 0.02 0.02 0.02 0.02 0.05 0.03 0.02 0.02 0.02 0.03 0.03 0.05 0.04 0.01 0.01 0.04 0.02 0.02 0.01 0.01 0.00 0.00 0.00 0.00 0.00 0.00 0.00 0.00 0.00 0.00
0.00 0.01 0.01 0.01 0.01 0.02 0.07 0.07 0.04 0.02 0.01 0.01 0.01 0.01 0.01 0.01 0.01 0.06 0.10 0.11 0.09 0.02 0.01 0.04 0.03 0.03 0.01 0.01 0.01 0.00 0.00 0.00 0.00 0.00 0.00 0.00 0.00 0.00
0.01 0.01 0.01 0.02 0.04 0.05 0.11 0.11 0.09 0.02 0.02 0.02 0.01 0.01 0.01 0.03 0.02 0.08 0.10 0.10 0.06 0.04 0.00 0.03 0.03 0.03 0.06 0.02 0.01 0.02 0.02 0.00 0.00 0.00 0.00 0.00 0.00 0.00
0.03 0.02 0.03 0.16 0.12 0.04 0.03 0.03 0.04 0.03 0.02 0.02 0.02 0.02 0.01 0.02 0.02 0.03 0.07 0.11 0.09 0.05 0.00 0.06 0.08 0.03 0.06 0.05 0.03 0.04 0.04 0.03 0.02 0.01 0.00 0.00 0.00 0.00
0.06 0.09 0.16 0.07 0.01 0.01 0.01 0.03 0.03 0.02 0.04 0.06 0.07 0.05 0.05 0.06 0.05 0.05 0.04 0.05 0.06 0.05 0.02 0.11 0.14 0.04 0.06 0.07 0.04 0.03 0.06 0.05 0.03 0.01 0.01 0.01 0.00 0.00
0.12 0.13 0.07 0.06 0.02 0.02 0.04 0.03 0.03 0.07 0.09 0.07 0.06 0.05 0.05 0.05 0.06 0.07 0.07 0.08 0.08 0.05 0.03 0.07 0.12 0.05 0.09 0.11 0.07 0.05 0.06 0.08 0.04 0.02 0.02 0.01 0.01 0.00
0.07 0.09 0.11 0.06 0.04 0.08 0.08 0.05 0.06 0.07 0.05 0.06 0.05 0.04 0.03 0.04 0.05 0.07 0.08 0.09 0.14 0.06 0.03 0.04 0.07 0.09 0.11 0.06 0.05 0.05 0.06 0.07 0.07 0.04 0.03 0.03 0.06 0.08
0.09 0.12 0.09 0.07 0.07 0.06 0.05 0.04 0.04 0.02 0.03 0.04 0.04 0.04 0.03 0.02 0.03 0.04 0.05 0.06 0.09 0.06 0.09 0.07 0.04 0.06 0.06 0.08 0.12 0.04 0.05 0.06 0.06 0.07 0.04 0.03 0.02 0.03
0.10 0.10 0.10 0.11 0.09 0.07 0.05 0.04 0.03 0.02 0.02 0.02 0.03 0.03 0.03 0.03 0.03 0.04 0.04 0.04 0.05 0.06 0.08 0.13 0.10 0.12 0.10 0.07 0.04 0.02 0.05 0.07 0.06 0.07 0.04 0.04 0.02 0.03
0.08 0.09 0.10 0.10 0.08 0.05 0.03 0.03 0.03 0.03 0.02 0.03 0.04 0.03 0.03 0.03 0.04 0.04 0.05 0.06 0.08 0.09 0.10 0.11 0.16 0.19 0.16 0.13 0.13 0.03 0.04 0.04 0.07 0.07 0.07 0.06 0.03 0.03
0.07 0.08 0.08 0.07 0.04 0.02 0.02 0.02 0.02 0.03 0.02 0.02 0.03 0.03 0.03 0.03 0.04 0.03 0.03 0.04 0.04 0.04 0.03 0.03 0.05 0.07 0.13 0.14 0.17 0.05 0.04 0.04 0.06 0.08 0.07 0.09 0.06 0.01
0.06 0.06 0.07 0.05 0.03 0.03 0.02 0.02 0.03 0.03 0.02 0.02 0.03 0.04 0.04 0.04 0.03 0.02 0.02 0.02 0.01 0.01 0.01 0.01 0.01 0.01 0.01 0.01 0.07 0.06 0.03 0.03 0.04 0.08 0.09 0.10 0.08 0.02
0.04 0.04 0.03 0.03 0.02 0.02 0.02 0.01 0.01 0.01 0.01 0.02 0.02 0.03 0.04 0.04 0.03 0.03 0.02 0.02 0.02 0.02 0.01 0.01 0.01 0.01 0.01 0.01 0.06 0.02 0.03 0.03 0.05 0.04 0.04 0.06 0.08 0.12
0.01 0.01 0.01 0.01 0.01 0.01 0.01 0.01 0.01 0.01 0.01 0.01 0.02 0.02 0.03 0.03 0.03 0.03 0.02 0.02 0.01 0.01 0.01 0.01 0.01 0.01 0.01 0.01 0.02 0.03 0.02 0.03 0.04 0.08 0.03 0.01 0.01 0.02

GFSNE_prec_precacc12_027.txt.gz
Total_Precipitation_Accumulation
0.04 0.04 0.06 0.06 0.08 0.10 0.10 0.06 0.04 0.02 0.00 0.00 0.00 0.00 0.01 0.02 0.03 0.06 0.11 0.16 0.09 0.05 0.03 0.01 0.00 0.00 0.00 0.00 0.00 0.00 0.00 0.00 0.00 0.00 0.00 0.00 0.00 0.00
0.05 0.06 0.07 0.08 0.09 0.10 0.12 0.12 0.11 0.07 0.02 0.00 0.00 0.00 0.00 0.00 0.00 0.00 0.01 0.01 0.02 0.02 0.01 0.01 0.00 0.00 0.00 0.00 0.00 0.00 0.00 0.00 0.00 0.00 0.00 0.00 0.00 0.00
0.02 0.02 0.01 0.01 0.01 0.01 0.02 0.02 0.01 0.01 0.01 0.00 0.00 0.00 0.00 0.00 0.00 0.00 0.00 0.00 0.00 0.00 0.00 0.00 0.00 0.00 0.00 0.00 0.00 0.00 0.00 0.00 0.00 0.00 0.00 0.00 0.00 0.00
0.00 0.00 0.00 0.00 0.00 0.00 0.00 0.00 0.00 0.00 0.00 0.00 0.00 0.00 0.00 0.00 0.00 0.00 0.00 0.00 0.00 0.00 0.00 0.00 0.00 0.00 0.00 0.00 0.00 0.00 0.00 0.00 0.00 0.00 0.00 0.00 0.00 0.00
0.00 0.00 0.00 0.00 0.00 0.00 0.00 0.00 0.00 0.00 0.00 0.00 0.00 0.00 0.00 0.00 0.00 0.00 0.00 0.00 0.00 0.00 0.00 0.00 0.00 0.00 0.00 0.00 0.00 0.00 0.00 0.00 0.00 0.00 0.00 0.00 0.00 0.00
0.00 0.00 0.00 0.00 0.00 0.00 0.00 0.00 0.00 0.00 0.00 0.00 0.00 0.00 0.00 0.00 0.00 0.00 0.00 0.00 0.00 0.00 0.00 0.00 0.00 0.00 0.00 0.00 0.00 0.00 0.00 0.00 0.00 0.00 0.00 0.00 0.00 0.00
0.00 0.00 0.00 0.00 0.00 0.00 0.00 0.00 0.00 0.00 0.00 0.00 0.00 0.00 0.00 0.00 0.00 0.00 0.00 0.00 0.00 0.00 0.00 0.00 0.00 0.00 0.00 0.00 0.00 0.00 0.00 0.00 0.00 0.00 0.00 0.00 0.00 0.00
0.00 0.00 0.00 0.00 0.00 0.00 0.00 0.00 0.00 0.00 0.00 0.01 0.01 0.00 0.00 0.00 0.00 0.00 0.00 0.01 0.01 0.00 0.00 0.01 0.00 0.00 0.00 0.00 0.00 0.00 0.00 0.00 0.00 0.00 0.00 0.00 0.00 0.00
0.00 0.00 0.00 0.00 0.00 0.00 0.00 0.00 0.00 0.00 0.00 0.01 0.01 0.00 0.00 0.00 0.01 0.01 0.01 0.02 0.01 0.00 0.01 0.01 0.01 0.02 0.00 0.00 0.00 0.00 0.00 0.00 0.00 0.00 0.00 0.00 0.00 0.00
0.00 0.00 0.00 0.00 0.00 0.00 0.01 0.01 0.02 0.01 0.01 0.02 0.05 0.04 0.03 0.02 0.03 0.03 0.05 0.08 0.06 0.01 0.01 0.04 0.02 0.02 0.01 0.01 0.00 0.00 0.00 0.00 0.00 0.00 0.00 0.00 0.00 0.00
0.00 0.01 0.01 0.01 0.01 0.02 0.06 0.05 0.03 0.02 0.01 0.01 0.02 0.02 0.02 0.01 0.02 0.05 0.09 0.10 0.08 0.02 0.01 0.04 0.03 0.03 0.01 0.01 0.01 0.00 0.00 0.00 0.00 0.00 0.00 0.00 0.00 0.00
0.01 0.01 0.01 0.02 0.05 0.07 0.12 0.09 0.07 0.02 0.01 0.01 0.01 0.01 0.01 0.01 0.01 0.04 0.06 0.09 0.05 0.04 0.00 0.02 0.03 0.03 0.06 0.02 0.01 0.02 0.02 0.00 0.00 0.00 0.00 0.00 0.00 0.00
0.03 0.02 0.03 0.15 0.14 0.07 0.03 0.03 0.04 0.03 0.02 0.01 0.01 0.01 0.01 0.01 0.02 0.03 0.05 0.08 0.07 0.04 0.00 0.07 0.09 0.03 0.07 0.05 0.03 0.04 0.04 0.03 0.02 0.01 0.00 0.00 0.00 0.00
0.05 0.07 0.14 0.08 0.05 0.03 0.02 0.04 0.04 0.03 0.05 0.08 0.08 0.06 0.07 0.07 0.07 0.08 0.08 0.09 0.07 0.06 0.02 0.14 0.22 0.06 0.08 0.08 0.04 0.03 0.06 0.05 0.04 0.01 0.01 0.01 0.00 0.00
0.09 0.10 0.07 0.09 0.04 0.03 0.08 0.06 0.05 0.10 0.13 0.10 0.07 0.06 0.05 0.05 0.05 0.05 0.05 0.06 0.06 0.04 0.03 0.05 0.13 0.08 0.12 0.12 0.07 0.05 0.06 0.08 0.04 0.02 0.02 0.01 0.01 0.00
0.04 0.08 0.12 0.07 0.05 0.11 0.10 0.07 0.09 0.07 0.05 0.07 0.05 0.03 0.03 0.03 0.04 0.04 0.06 0.07 0.10 0.05 0.02 0.02 0.03 0.05 0.08 0.05 0.06 0.06 0.05 0.06 0.07 0.04 0.03 0.03 0.06 0.08
0.06 0.11 0.08 0.07 0.08 0.07 0.06 0.05 0.05 0.03 0.03 0.03 0.04 0.03 0.03 0.02 0.03 0.03 0.04 0.04 0.07 0.06 0.08 0.05 0.02 0.03 0.04 0.05 0.10 0.04 0.05 0.06 0.06 0.07 0.05 0.03 0.02 0.03
0.08 0.08 0.09 0.10 0.10 0.08 0.06 0.05 0.04 0.05 0.02 0.02 0.04 0.03 0.02 0.03 0.03 0.04 0.04 0.03 0.05 0.06 0.08 0.14 0.09 0.08 0.07 0.03 0.02 0.02 0.04 0.07 0.06 0.07 0.05 0.05 0.02 0.03
0.06 0.07 0.08 0.09 0.08 0.04 0.02 0.02 0.03 0.04 0.02 0.02 0.03 0.02 0.03 0.03 0.05 0.03 0.04 0.05 0.06 0.09 0.10 0.08 0.13 0.20 0.18 0.14 0.14 0.04 0.03 0.04 0.06 0.06 0.06 0.06 0.04 0.04
0.04 0.06 0.07 0.06 0.03 0.01 0.01 0.01 0.02 0.03 0.02 0.02 0.03 0.03 0.03 0.04 0.04 0.03 0.02 0.03 0.04 0.04 0.03 0.02 0.04 0.06 0.12 0.14 0.18 0.05 0.03 0.03 0.04 0.05 0.06 0.09 0.07 0.04
0.03 0.04 0.04 0.03 0.01 0.01 0.01 0.01 0.02 0.02 0.02 0.02 0.03 0.03 0.04 0.05 0.03 0.02 0.02 0.02 0.01 0.01 0.01 0.00 0.00 0.00 0.00 0.01 0.09 0.06 0.01 0.00 0.02 0.05 0.07 0.09 0.09 0.05
0.02 0.01 0.01 0.01 0.01 0.01 0.01 0.01 0.01 0.01 0.01 0.01 0.02 0.03 0.04 0.04 0.04 0.04 0.02 0.02 0.02 0.01 0.02 0.01 0.00 0.01 0.01 0.01 0.08 0.03 0.02 0.01 0.02 0.01 0.02 0.05 0.09 0.13
0.00 0.00 0.00 0.00 0.00 0.00 0.00 0.01 0.01 0.01 0.01 0.01 0.01 0.02 0.03 0.03 0.03 0.03 0.02 0.02 0.02 0.01 0.01 0.01 0.01 0.00 0.01 0.00 0.02 0.03 0.01 0.01 0.03 0.07 0.02 0.00 0.01 0.02

GFSNE_prec_precacc12_030.txt.gz
Total_Precipitation_Accumulation
0.03 0.03 0.04 0.06 0.09 0.12 0.19 0.25 0.26 0.14 0.02 0.00 0.00 0.00 0.01 0.02 0.03 0.06 0.11 0.16 0.13 0.11 0.15 0.09 0.01 0.00 0.00 0.00 0.00 0.00 0.00 0.00 0.00 0.00 0.00 0.00 0.00 0.00
0.05 0.06 0.06 0.07 0.08 0.10 0.13 0.13 0.15 0.17 0.08 0.00 0.00 0.00 0.00 0.00 0.00 0.01 0.01 0.01 0.02 0.03 0.03 0.07 0.09 0.03 0.00 0.00 0.00 0.00 0.00 0.00 0.00 0.00 0.00 0.00 0.00 0.00
0.01 0.01 0.01 0.01 0.01 0.01 0.02 0.02 0.02 0.02 0.02 0.00 0.00 0.00 0.00 0.00 0.00 0.00 0.00 0.00 0.00 0.01 0.00 0.00 0.01 0.02 0.01 0.00 0.00 0.00 0.00 0.00 0.00 0.00 0.00 0.00 0.00 0.00
0.00 0.00 0.00 0.00 0.00 0.00 0.00 0.00 0.00 0.00 0.00 0.00 0.00 0.00 0.00 0.00 0.00 0.00 0.00 0.00 0.00 0.00 0.00 0.00 0.00 0.00 0.00 0.00 0.00 0.00 0.00 0.00 0.00 0.00 0.00 0.00 0.00 0.00
0.00 0.00 0.00 0.00 0.00 0.00 0.00 0.00 0.00 0.00 0.00 0.00 0.00 0.00 0.00 0.00 0.00 0.00 0.00 0.00 0.00 0.00 0.00 0.00 0.00 0.00 0.00 0.00 0.00 0.00 0.00 0.00 0.00 0.00 0.00 0.00 0.00 0.00
0.00 0.00 0.00 0.00 0.00 0.00 0.00 0.00 0.00 0.00 0.00 0.00 0.00 0.00 0.00 0.00 0.00 0.00 0.00 0.00 0.00 0.00 0.00 0.00 0.00 0.00 0.00 0.00 0.00 0.00 0.00 0.00 0.00 0.00 0.00 0.00 0.00 0.00
0.00 0.00 0.00 0.00 0.00 0.00 0.00 0.00 0.00 0.00 0.00 0.00 0.00 0.00 0.00 0.00 0.00 0.00 0.00 0.00 0.00 0.00 0.00 0.00 0.00 0.00 0.00 0.00 0.00 0.00 0.00 0.00 0.00 0.00 0.00 0.00 0.00 0.00
0.00 0.00 0.00 0.00 0.00 0.00 0.00 0.00 0.00 0.00 0.00 0.00 0.00 0.00 0.00 0.00 0.00 0.00 0.00 0.01 0.01 0.00 0.00 0.00 0.00 0.00 0.00 0.00 0.00 0.00 0.00 0.00 0.00 0.00 0.00 0.00 0.00 0.00
0.00 0.00 0.00 0.00 0.00 0.00 0.00 0.00 0.00 0.00 0.01 0.01 0.01 0.00 0.00 0.00 0.00 0.00 0.00 0.01 0.01 0.00 0.00 0.01 0.01 0.01 0.00 0.00 0.00 0.00 0.00 0.00 0.00 0.00 0.00 0.00 0.00 0.00
0.00 0.00 0.00 0.00 0.00 0.00 0.01 0.02 0.01 0.01 0.01 0.02 0.04 0.03 0.02 0.01 0.02 0.03 0.04 0.07 0.05 0.01 0.01 0.02 0.01 0.01 0.01 0.00 0.00 0.00 0.00 0.00 0.00 0.00 0.00 0.00 0.00 0.00
0.00 0.00 0.01 0.01 0.01 0.03 0.05 0.05 0.03 0.01 0.01 0.01 0.02 0.02 0.03 0.02 0.02 0.05 0.07 0.08 0.05 0.01 0.01 0.03 0.02 0.02 0.01 0.01 0.00 0.00 0.00 0.00 0.00 0.00 0.00 0.00 0.00 0.00
0.01 0.01 0.01 0.02 0.05 0.07 0.12 0.10 0.06 0.01 0.01 0.01 0.00 0.00 0.00 0.01 0.00 0.01 0.02 0.05 0.03 0.03 0.00 0.02 0.02 0.03 0.05 0.01 0.01 0.01 0.01 0.00 0.00 0.00 0.00 0.00 0.00 0.00
0.02 0.01 0.02 0.14 0.14 0.09 0.05 0.05 0.05 0.04 0.02 0.02 0.02 0.01 0.02 0.02 0.03 0.05 0.07 0.10 0.07 0.04 0.00 0.05 0.08 0.03 0.05 0.03 0.02 0.03 0.03 0.02 0.01 0.01 0.00 0.00 0.00 0.00
0.03 0.05 0.11 0.08 0.06 0.04 0.05 0.08 0.06 0.04 0.05 0.08 0.09 0.07 0.09 0.09 0.09 0.09 0.09 0.11 0.08 0.06 0.02 0.13 0.23 0.06 0.06 0.06 0.04 0.02 0.04 0.05 0.03 0.01 0.01 0.01 0.00 0.00
0.06 0.09 0.08 0.09 0.05 0.04 0.10 0.09 0.06 0.11 0.13 0.10 0.08 0.07 0.06 0.05 0.04 0.03 0.03 0.04 0.04 0.03 0.03 0.04 0.12 0.08 0.12 0.12 0.06 0.04 0.05 0.06 0.03 0.01 0.01 0.01 0.01 0.00
0.02 0.04 0.11 0.06 0.05 0.12 0.11 0.09 0.11 0.08 0.06 0.08 0.05 0.03 0.02 0.02 0.03 0.04 0.04 0.04 0.06 0.03 0.01 0.00 0.01 0.03 0.04 0.03 0.05 0.04 0.03 0.05 0.05 0.03 0.02 0.02 0.05 0.07
0.03 0.09 0.05 0.04 0.07 0.08 0.07 0.06 0.06 0.04 0.03 0.04 0.04 0.03 0.02 0.02 0.03 0.03 0.04 0.02 0.05 0.05 0.05 0.03 0.00 0.01 0.02 0.04 0.07 0.03 0.04 0.04 0.04 0.06 0.04 0.02 0.01 0.02
0.05 0.05 0.05 0.07 0.09 0.08 0.06 0.04 0.04 0.06 0.02 0.03 0.04 0.03 0.03 0.03 0.03 0.03 0.04 0.03 0.04 0.06 0.07 0.12 0.07 0.05 0.05 0.04 0.05 0.02 0.03 0.04 0.04 0.06 0.05 0.05 0.02 0.02
0.03 0.04 0.05 0.06 0.06 0.03 0.02 0.02 0.03 0.04 0.02 0.02 0.03 0.03 0.04 0.03 0.04 0.02 0.03 0.04 0.06 0.09 0.08 0.06 0.11 0.17 0.15 0.11 0.12 0.04 0.03 0.03 0.04 0.04 0.06 0.06 0.04 0.03
0.02 0.03 0.04 0.04 0.01 0.00 0.00 0.01 0.02 0.02 0.02 0.02 0.02 0.03 0.04 0.05 0.04 0.02 0.02 0.03 0.03 0.03 0.02 0.01 0.02 0.04 0.08 0.09 0.15 0.04 0.03 0.02 0.03 0.03 0.04 0.08 0.07 0.04
0.01 0.02 0.02 0.01 0.00 0.00 0.01 0.01 0.01 0.02 0.01 0.01 0.02 0.03 0.04 0.05 0.04 0.03 0.01 0.01 0.01 0.01 0.01 0.00 0.00 0.00 0.00 0.01 0.09 0.05 0.00 0.00 0.00 0.02 0.04 0.07 0.08 0.05
0.00 0.00 0.00 0.00 0.00 0.00 0.01 0.01 0.00 0.00 0.01 0.01 0.01 0.02 0.03 0.04 0.04 0.04 0.02 0.02 0.01 0.01 0.01 0.00 0.00 0.00 0.00 0.01 0.07 0.03 0.01 0.00 0.00 0.00 0.00 0.03 0.07 0.10
0.00 0.00 0.00 0.00 0.00 0.00 0.00 0.00 0.00 0.00 0.00 0.00 0.01 0.01 0.02 0.02 0.02 0.03 0.02 0.01 0.01 0.01 0.01 0.01 0.01 0.00 0.01 0.00 0.02 0.03 0.00 0.01 0.02 0.06 0.01 0.00 0.01 0.02

GFSNE_prec_precacc12_033.txt.gz
Total_Precipitation_Accumulation
0.03 0.03 0.04 0.06 0.09 0.12 0.19 0.27 0.32 0.18 0.03 0.00 0.00 0.00 0.01 0.02 0.03 0.06 0.11 0.16 0.13 0.11 0.17 0.19 0.13 0.06 0.02 0.00 0.00 0.00 0.00 0.00 0.00 0.00 0.00 0.00 0.00 0.00
0.02 0.03 0.04 0.05 0.07 0.09 0.12 0.13 0.15 0.20 0.13 0.00 0.00 0.00 0.00 0.00 0.00 0.01 0.01 0.01 0.02 0.03 0.03 0.07 0.14 0.14 0.11 0.05 0.01 0.00 0.00 0.00 0.00 0.00 0.00 0.00 0.00 0.00
0.01 0.01 0.01 0.01 0.01 0.01 0.02 0.02 0.02 0.02 0.02 0.00 0.00 0.00 0.00 0.00 0.00 0.00 0.00 0.00 0.00 0.01 0.00 0.00 0.01 0.05 0.06 0.04 0.02 0.01 0.00 0.00 0.00 0.00 0.00 0.00 0.00 0.00
0.00 0.00 0.00 0.00 0.00 0.00 0.00 0.00 0.00 0.00 0.00 0.00 0.00 0.00 0.00 0.00 0.00 0.00 0.00 0.00 0.00 0.00 0.00 0.00 0.00 0.00 0.00 0.01 0.00 0.00 0.00 0.00 0.00 0.00 0.00 0.00 0.00 0.00
0.00 0.00 0.00 0.00 0.00 0.00 0.00 0.00 0.00 0.00 0.00 0.00 0.00 0.00 0.00 0.00 0.00 0.00 0.00 0.00 0.00 0.00 0.00 0.00 0.00 0.00 0.00 0.00 0.00 0.00 0.00 0.00 0.00 0.00 0.00 0.00 0.00 0.00
0.00 0.00 0.00 0.00 0.00 0.00 0.00 0.00 0.00 0.00 0.00 0.00 0.00 0.00 0.00 0.00 0.00 0.00 0.00 0.00 0.00 0.00 0.00 0.00 0.00 0.00 0.00 0.00 0.00 0.00 0.00 0.00 0.00 0.00 0.00 0.00 0.00 0.00
0.00 0.00 0.00 0.00 0.00 0.00 0.00 0.00 0.00 0.00 0.00 0.00 0.00 0.00 0.00 0.00 0.00 0.00 0.00 0.00 0.00 0.00 0.00 0.00 0.00 0.00 0.00 0.00 0.00 0.00 0.00 0.00 0.00 0.00 0.00 0.00 0.00 0.00
0.00 0.00 0.00 0.00 0.00 0.00 0.00 0.00 0.00 0.01 0.01 0.00 0.00 0.00 0.00 0.00 0.00 0.00 0.00 0.00 0.00 0.00 0.00 0.00 0.00 0.00 0.00 0.00 0.00 0.00 0.00 0.00 0.00 0.00 0.00 0.00 0.00 0.00
0.00 0.00 0.00 0.00 0.00 0.00 0.00 0.00 0.00 0.00 0.01 0.01 0.02 0.00 0.00 0.00 0.00 0.00 0.00 0.00 0.00 0.00 0.00 0.00 0.00 0.00 0.00 0.00 0.00 0.00 0.00 0.00 0.00 0.00 0.00 0.00 0.00 0.00
0.00 0.00 0.00 0.00 0.00 0.00 0.02 0.03 0.01 0.00 0.00 0.01 0.03 0.02 0.02 0.01 0.01 0.02 0.04 0.07 0.04 0.00 0.00 0.01 0.00 0.00 0.00 0.00 0.00 0.00 0.00 0.00 0.00 0.00 0.00 0.00 0.00 0.00
0.00 0.00 0.00 0.00 0.01 0.03 0.06 0.04 0.01 0.00 0.00 0.01 0.02 0.02 0.04 0.05 0.05 0.08 0.07 0.06 0.04 0.00 0.00 0.01 0.00 0.00 0.00 0.00 0.00 0.00 0.00 0.00 0.00 0.00 0.00 0.00 0.00 0.00
0.00 0.00 0.00 0.01 0.05 0.08 0.13 0.09 0.05 0.01 0.00 0.00 0.00 0.00 0.00 0.00 0.00 0.00 0.01 0.02 0.01 0.02 0.00 0.00 0.01 0.01 0.02 0.00 0.00 0.00 0.00 0.00 0.00 0.00 0.00 0.00 0.00 0.00
0.01 0.00 0.01 0.08 0.12 0.08 0.06 0.07 0.08 0.04 0.02 0.02 0.02 0.02 0.03 0.03 0.04 0.06 0.07 0.08 0.05 0.03 0.00 0.03 0.04 0.01 0.03 0.01 0.01 0.01 0.01 0.01 0.00 0.00 0.00 0.00 0.00 0.00
0.02 0.03 0.07 0.06 0.07 0.05 0.06 0.11 0.07 0.05 0.05 0.07 0.08 0.07 0.09 0.10 0.10 0.10 0.10 0.12 0.09 0.05 0.01 0.11 0.20 0.04 0.05 0.04 0.02 0.01 0.02 0.01 0.02 0.01 0.00 0.00 0.00 0.00
0.03 0.07 0.06 0.08 0.04 0.04 0.09 0.11 0.07 0.09 0.12 0.09 0.07 0.06 0.04 0.04 0.03 0.02 0.02 0.02 0.02 0.02 0.01 0.04 0.09 0.06 0.11 0.10 0.04 0.01 0.01 0.02 0.01 0.01 0.00 0.00 0.00 0.00
0.01 0.02 0.08 0.04 0.03 0.08 0.09 0.08 0.11 0.09 0.07 0.09 0.06 0.03 0.02 0.02 0.03 0.04 0.05 0.03 0.03 0.01 0.00 0.00 0.01 0.02 0.04 0.04 0.05 0.02 0.00 0.02 0.01 0.01 0.00 0.00 0.02 0.06
0.01 0.05 0.03 0.02 0.03 0.04 0.05 0.05 0.06 0.03 0.03 0.04 0.04 0.03 0.02 0.03 0.03 0.04 0.04 0.02 0.03 0.02 0.02 0.01 0.00 0.00 0.02 0.04 0.07 0.02 0.02 0.01 0.01 0.02 0.02 0.01 0.00 0.01
0.02 0.03 0.02 0.03 0.05 0.05 0.04 0.03 0.03 0.05 0.02 0.03 0.04 0.03 0.04 0.04 0.04 0.02 0.03 0.03 0.05 0.05 0.04 0.07 0.04 0.02 0.03 0.05 0.06 0.03 0.02 0.02 0.01 0.02 0.04 0.04 0.01 0.00
0.01 0.02 0.03 0.03 0.03 0.02 0.01 0.01 0.02 0.04 0.01 0.01 0.03 0.03 0.04 0.04 0.04 0.01 0.01 0.02 0.04 0.06 0.05 0.03 0.06 0.12 0.09 0.07 0.08 0.04 0.03 0.03 0.02 0.01 0.02 0.05 0.03 0.02
0.01 0.02 0.02 0.03 0.00 0.00 0.00 0.00 0.01 0.01 0.01 0.01 0.02 0.02 0.03 0.05 0.04 0.02 0.01 0.02 0.02 0.02 0.01 0.00 0.00 0.00 0.03 0.04 0.06 0.02 0.02 0.02 0.02 0.02 0.02 0.05 0.06 0.04
0.00 0.00 0.01 0.00 0.00 0.00 0.00 0.00 0.01 0.01 0.00 0.00 0.01 0.01 0.03 0.04 0.03 0.02 0.01 0.01 0.00 0.00 0.01 0.00 0.00 0.00 0.00 0.00 0.07 0.04 0.00 0.00 0.00 0.00 0.01 0.04 0.06 0.04
0.00 0.00 0.00 0.00 0.00 0.00 0.00 0.00 0.00 0.00 0.00 0.00 0.00 0.01 0.02 0.03 0.03 0.03 0.02 0.01 0.01 0.01 0.01 0.00 0.00 0.00 0.00 0.00 0.05 0.02 0.00 0.00 0.00 0.00 0.00 0.01 0.03 0.06
0.00 0.00 0.00 0.00 0.00 0.00 0.00 0.00 0.00 0.00 0.00 0.00 0.00 0.00 0.01 0.01 0.01 0.02 0.01 0.01 0.01 0.00 0.00 0.01 0.01 0.00 0.01 0.00 0.02 0.03 0.00 0.00 0.01 0.03 0.00 0.00 0.00 0.01